Location: Smoky Mountain Stargaze
(35.4252°N, 83.3329°W)
Time: 06:41:47
(UTC-05:00)

Amateur Radio Satellites - All Passes

Search period start: 01 February 2015 06:11
Search period end: 02 February 2015 06:11
Location: Smoky Mountain Stargaze, 35.4252°N, 83.3329°W

Satellite Date Start Highest point End Downlink Frequencies (MHz)
Time Altitude Azimuth
CUBESAT XI-V 01 Feb 06:16:55 06:21:26 64° 76° (ENE) 06:26:02 437.345
JAS-2 01 Feb 06:19:09 06:24:24 33° 289° (WNW) 06:30:06 435.910
YUBILEINY 01 Feb 06:33:59 06:42:31 54° 78° (ENE) 06:51:07 435.215
PRISM 01 Feb 06:37:21 06:41:17 44° 261° (W) 06:45:14 437.425
DANDE 01 Feb 06:41:08 06:45:02 13° 301° (WNW) 06:48:16 436.750
RS-15 01 Feb 06:52:57 07:02:26 31° 319° (NW) 07:11:48 29.354- 29.394
PHONESAT 2.4 01 Feb 07:07:46 07:10:45 25° 147° (SSE) 07:13:48 2401.200-2431.200
AO-7 01 Feb 07:07:59 07:12:33 15° 306° (NW) 07:16:36 29.400- 29.500
Cubesat XI-IV 01 Feb 07:15:13 07:20:33 63° 286° (WNW) 07:25:51 437.490
VERMONT LUNAR 01 Feb 07:27:20 07:30:45 64° 155° (SSE) 07:34:13 437.305
CUTE-I 01 Feb 07:34:29 07:39:32 42° 288° (WNW) 07:44:32 437.470
STRAND 1 01 Feb 07:40:57 07:45:09 25° 265° (W) 07:49:16 437.568
GOMX 1 01 Feb 08:10:41 08:12:43 13° 87° (E) 08:15:02 467.674
CANX-2 01 Feb 08:15:29 08:16:55 12° 90° (E) 08:18:36 2200.000
BRITE-PL 01 Feb 08:29:43 08:34:37 32° 94° (E) 08:39:21 437.365/2234.400
YUBILEINY 01 Feb 08:31:40 08:38:58 29° 274° (W) 08:45:59 435.215
CUTE 1.7 + AOD 2 01 Feb 08:37:44 08:40:50 20° 94° (E) 08:44:03 437.475
PHONESAT 2.4 01 Feb 08:45:33 08:49:08 68° 340° (NNW) 08:52:45 2401.200-2431.200
SEEDS 01 Feb 09:03:12 09:07:01 34° 97° (E) 09:10:52 437.485
VERMONT LUNAR 01 Feb 09:05:41 09:08:59 40° 350° (N) 09:12:17 437.305
CINEMA 3 01 Feb 09:06:41 09:09:42 17° 91° (E) 09:12:47 145.822/145.860
UNISAT 6 01 Feb 09:11:05 09:12:46 12° 66° (ENE) 09:14:42 437.425
RS-15 01 Feb 09:15:43 09:20:04 12° 353° (N) 09:24:17 29.354- 29.394
HO-68 01 Feb 09:21:44 09:28:53 70° 103° (ESE) 09:36:02 435.675
COMPASS 1 01 Feb 09:24:47 09:28:52 53° 99° (E) 09:32:55 437.405
DELFI C3 01 Feb 09:26:10 09:28:37 16° 92° (E) 09:31:14 145.870
UKube-1 01 Feb 09:29:22 09:30:48 12° 91° (E) 09:32:31 .
SO-50 01 Feb 09:34:22 09:38:48 59° 116° (ESE) 09:43:24 436.795
QB50P2 01 Feb 09:40:12 09:42:09 13° 68° (ENE) 09:44:19 145.880/145.840
DOVE 4 01 Feb 09:42:50 09:47:59 84° 103° (ESE) 09:52:48 437.250
ANTELSAT 01 Feb 09:44:49 09:48:48 28° 71° (ENE) 09:52:51 437.575/2403.000
GOMX 1 01 Feb 09:46:10 09:51:29 65° 285° (WNW) 09:56:27 467.674
BEESAT 2 01 Feb 09:47:03 09:48:31 12° 45° (NE) 09:50:10 435.950
QB50P1 01 Feb 09:47:42 09:50:14 16° 69° (ENE) 09:52:58 145.935-145.965
AAUSAT CUBESAT 2 01 Feb 09:48:28 09:52:38 89° 283° (WNW) 09:56:46 437.432
CANX-2 01 Feb 09:49:08 09:53:12 46° 286° (WNW) 09:57:13 2200.000
ZACube-1 01 Feb 09:49:28 09:52:29 19° 92° (E) 09:55:34 437.345
TIGRISAT 01 Feb 09:50:25 09:54:32 32° 72° (ENE) 09:58:42 435.000
DX 1 01 Feb 09:52:25 09:55:57 24° 95° (E) 09:59:33 434.975-435.025
CUBEBUG 2 01 Feb 09:55:45 09:59:48 33° 96° (E) 10:03:45 437.445
BEESAT 3 01 Feb 09:56:49 09:59:26 16° 48° (NE) 10:02:09 437.485
FUNcube-1 01 Feb 09:59:53 10:03:24 24° 94° (E) 10:06:55 145.935
POLYITAN 1 01 Feb 10:03:44 10:07:13 25° 71° (ENE) 10:10:47 437.675
BRITE-PL 01 Feb 10:08:12 10:13:02 30° 290° (WNW) 10:17:35 437.365/2234.400
50 SAT 01 Feb 10:09:37 10:10:14 10° 90° (E) 10:11:06 437.505
CUTE 1.7 + AOD 2 01 Feb 10:13:12 10:16:48 27° 288° (WNW) 10:20:18 437.475
AIST 1 01 Feb 10:19:56 10:22:01 14° 88° (E) 10:24:20
POPSAT HIP 1 01 Feb 10:21:23 10:25:21 39° 73° (ENE) 10:29:23 437.405
DUCHIFAT 1 01 Feb 10:22:01 10:25:58 39° 73° (ENE) 10:29:59 145.980
PHONESAT 2.4 01 Feb 10:24:40 10:28:01 35° 358° (N) 10:31:23 2401.200-2431.200
Oscar 11 01 Feb 10:25:48 10:30:07 71° 283° (WNW) 10:34:22 145.826/435.025
UWE-3 01 Feb 10:28:26 10:32:52 69° 101° (E) 10:37:07 435.000/436.395/437.385
AISAT 01 Feb 10:32:41 10:36:24 26° 95° (E) 10:40:12 437.250
SEEDS 01 Feb 10:39:57 10:42:37 16° 291° (WNW) 10:45:08 437.485
CINEMA 3 01 Feb 10:42:44 10:47:10 39° 287° (WNW) 10:51:21 145.822/145.860
VERMONT LUNAR 01 Feb 10:44:14 10:47:30 36° 7° (N) 10:50:47 437.305
UNISAT 6 01 Feb 10:44:26 10:49:06 63° 259° (W) 10:53:46 437.425
GONETS M04 01 Feb 10:44:53 10:46:58 11° 59° (ENE) 10:49:51
ESTCUBE 1 01 Feb 10:47:03 10:49:40 16° 92° (E) 10:52:29 437.505/2401.250
NANOSAT C BR1 01 Feb 10:57:05 11:01:20 77° 258° (WSW) 11:05:39 145.865
CUBEBUG 1 01 Feb 10:57:41 11:00:47 19° 93° (E) 11:04:00 437.445
VELOX 1 01 Feb 10:58:39 11:03:01 50° 100° (E) 11:07:23 145.980
DELFI C3 01 Feb 11:00:23 11:03:59 31° 287° (WNW) 11:07:32 145.870
HUMSAT D 01 Feb 11:01:14 11:05:26 72° 101° (E) 11:09:34 437.325/437.525
COMPASS 1 01 Feb 11:02:58 11:04:11 11° 293° (WNW) 11:05:09 437.405
UKube-1 01 Feb 11:03:06 11:07:20 50° 286° (WNW) 11:11:33 .
HO-68 01 Feb 11:10:56 11:16:02 21° 298° (WNW) 11:20:51 435.675
QB50P2 01 Feb 11:13:35 11:17:43 46° 261° (W) 11:21:53 145.880/145.840
BUGSAT 1 01 Feb 11:15:39 11:19:41 59° 259° (W) 11:23:48 437.445
SO-50 01 Feb 11:16:55 11:19:49 16° 315° (NW) 11:22:37 436.795
ANTELSAT 01 Feb 11:21:40 11:25:35 25° 265° (W) 11:29:24 437.575/2403.000
QB50P1 01 Feb 11:21:53 11:25:52 37° 262° (W) 11:29:52 145.935-145.965
BEESAT 2 01 Feb 11:23:06 11:27:15 67° 243° (WSW) 11:31:19 435.950
DOVE 4 01 Feb 11:24:39 11:25:00 10° 297° (WNW) 11:25:00 437.250
ZACube-1 01 Feb 11:25:05 11:28:58 31° 288° (WNW) 11:32:42 437.345
TIGRISAT 01 Feb 11:27:37 11:31:20 22° 266° (W) 11:34:56 435.000
DX 1 01 Feb 11:28:30 11:32:11 26° 289° (WNW) 11:35:45 434.975-435.025
RS-15 01 Feb 11:31:19 11:38:52 20° 29° (NNE) 11:47:03 29.354- 29.394
CUBEBUG 2 01 Feb 11:33:06 11:36:17 19° 291° (WNW) 11:39:17 437.445
BEESAT 3 01 Feb 11:33:54 11:37:50 42° 245° (WSW) 11:41:40 437.485
FUNcube-1 01 Feb 11:36:10 11:39:42 24° 289° (WNW) 11:43:05 145.935
AIST 2 01 Feb 11:36:34 11:40:50 65° 59° (ENE) 11:45:00 435.215
POLYITAN 1 01 Feb 11:39:35 11:43:06 24° 265° (W) 11:46:34 437.675
50 SAT 01 Feb 11:41:49 11:45:42 46° 285° (WNW) 11:49:31 437.505
AIST 1 01 Feb 11:55:27 11:59:24 36° 281° (WNW) 12:03:21
POPSAT HIP 1 01 Feb 11:58:56 12:01:28 15° 268° (W) 12:03:50 437.405
DUCHIFAT 1 01 Feb 11:59:33 12:02:03 15° 268° (W) 12:04:22 145.980
PHONESAT 2.4 01 Feb 12:03:26 12:06:58 51° 14° (NNE) 12:10:32 2401.200-2431.200
SPROUT 01 Feb 12:05:10 12:08:44 25° 95° (E) 12:12:21 437.525
AISAT 01 Feb 12:09:14 12:12:59 25° 290° (WNW) 12:16:36 437.250
Oscar 19 01 Feb 12:21:30 12:25:27 23° 68° (ENE) 12:29:32 437.125/150
VERMONT LUNAR 01 Feb 12:22:18 12:25:48 83° 205° (SSW) 12:29:19 437.305
ESTCUBE 1 01 Feb 12:22:31 12:26:48 41° 287° (WNW) 12:31:02 437.505/2401.250
PCSat 01 Feb 12:25:34 12:29:43 22° 51° (NE) 12:33:59 145.827
TISAT 1 01 Feb 12:29:59 12:34:08 47° 99° (E) 12:38:16 437.305
CUBEBUG 1 01 Feb 12:33:15 12:37:16 33° 288° (WNW) 12:41:13 437.445
VELOX 1 01 Feb 12:36:53 12:39:14 14° 293° (WNW) 12:41:21 145.980
GONETS M04 01 Feb 12:37:05 12:45:46 72° 81° (E) 12:54:28
ITAMSAT 1 01 Feb 12:47:01 12:49:23 14° 65° (ENE) 12:52:01 435.822/435.867
SWISSCUBE 01 Feb 12:54:56 12:57:08 13° 91° (E) 12:59:38 437.505
BEESAT 01 Feb 13:09:15 13:12:25 18° 93° (E) 13:15:46 436.000
ITUPSAT 1 01 Feb 13:15:05 13:18:35 21° 94° (E) 13:22:14 437.325
SPROUT 01 Feb 13:41:14 13:44:45 24° 289° (WNW) 13:48:11 437.525
PHONESAT 2.4 01 Feb 13:42:05 13:45:31 40° 210° (SSW) 13:48:57 2401.200-2431.200
RS-15 01 Feb 13:42:51 13:54:11 66° 56° (NE) 14:06:03 29.354- 29.394
Oscar 19 01 Feb 13:59:47 14:04:37 37° 263° (W) 14:09:24 437.125/150
VERMONT LUNAR 01 Feb 14:01:25 14:03:35 15° 216° (SW) 14:05:41 437.305
Gurwin Techsat 1B 01 Feb 14:01:26 14:06:31 50° 73° (ENE) 14:11:40 435.225
TISAT 1 01 Feb 14:07:31 14:09:36 13° 293° (WNW) 14:11:27 437.305
PCSat 01 Feb 14:08:14 14:13:25 47° 249° (WSW) 14:18:33 145.827
CUSAT 1 01 Feb 14:10:52 14:13:27 14° 60° (ENE) 14:15:59 437.405
KKS-1 01 Feb 14:10:58 14:13:22 15° 91° (E) 14:15:58 437.445
AO-7 01 Feb 14:18:03 14:23:56 23° 58° (ENE) 14:30:08 29.400- 29.500
ITAMSAT 1 01 Feb 14:23:15 14:28:24 66° 259° (W) 14:33:34 435.822/435.867
SWISSCUBE 01 Feb 14:30:44 14:35:24 52° 286° (WNW) 14:40:03 437.505
GONETS M04 01 Feb 14:35:49 14:41:53 20° 277° (W) 14:47:28
O/OREOS (USA 219) 01 Feb 14:45:40 14:48:02 15° 101° (E) 14:50:38 437.305
BEESAT 01 Feb 14:46:01 14:50:28 39° 288° (WNW) 14:54:53 436.000
ITUPSAT 1 01 Feb 14:52:14 14:56:36 35° 289° (WNW) 15:00:55 437.325
HORYU 2 01 Feb 14:55:44 15:00:06 52° 74° (ENE) 15:04:28 437.375
STARS 01 Feb 15:31:23 15:35:51 83° 102° (ESE) 15:40:16 437.465
JUGNU 01 Feb 15:32:32 15:34:26 12° 167° (SSE) 15:36:25 437.505
AUBIESAT-1 01 Feb 15:36:12 15:38:50 21° 101° (ESE) 15:41:38 437.475
DANDE 01 Feb 15:41:52 15:47:49 79° 263° (W) 15:52:07 436.750
Gurwin Techsat 1B 01 Feb 15:43:21 15:46:51 17° 269° (W) 15:50:08 435.225
KKS-1 01 Feb 15:46:02 15:50:18 42° 287° (WNW) 15:54:30 437.445
CUSAT 1 01 Feb 15:52:09 15:57:20 46° 268° (W) 16:01:10 437.405
RS-15 01 Feb 15:56:12 16:06:05 33° 253° (WSW) 16:15:54 29.354- 29.394
AO-7 01 Feb 16:07:39 16:16:00 76° 255° (WSW) 16:24:25 29.400- 29.500
MOZHAYETS 4 01 Feb 16:15:52 16:17:53 13° 90° (E) 16:20:10
O/OREOS (USA 219) 01 Feb 16:22:52 16:27:08 42° 294° (WNW) 16:31:26 437.305
JAS-2 01 Feb 16:28:21 16:33:50 76° 77° (ENE) 16:39:02 435.910
HORYU 2 01 Feb 16:35:13 16:37:08 12° 269° (W) 16:38:47 437.375
M-CUBED/EXP-1 PRIME 01 Feb 16:40:31 16:43:39 36° 290° (WNW) 16:46:55 437.505
Cubesat XI-IV 01 Feb 16:56:24 16:59:49 18° 66° (ENE) 17:03:26 437.490
AUBIESAT-1 01 Feb 17:11:22 17:13:42 17° 293° (WNW) 17:16:01 437.475
CUTE-I 01 Feb 17:14:17 17:18:35 26° 69° (ENE) 17:23:01 437.470
JUGNU 01 Feb 17:19:03 17:22:42 17° 177° (S) 17:26:24 437.505
MOZHAYETS 4 01 Feb 17:51:03 17:55:29 49° 285° (WNW) 17:59:52
SRMSAT 01 Feb 18:06:33 18:09:58 16° 173° (S) 18:13:26 437.500
AO-7 01 Feb 18:07:27 18:10:18 11° 273° (W) 18:12:17 29.400- 29.500
SO-50 01 Feb 18:09:02 18:13:08 26° 51° (NE) 18:17:18 436.795
STRAND 1 01 Feb 18:16:28 18:18:54 14° 90° (E) 18:21:39 437.568
CUBESAT XI-V 01 Feb 18:17:36 18:21:02 21° 93° (E) 18:24:37 437.345
PRISM 01 Feb 18:23:20 18:26:59 30° 97° (E) 18:30:42 437.425
Cubesat XI-IV 01 Feb 18:34:24 18:39:34 51° 260° (W) 18:44:45 437.490
CUTE-I 01 Feb 18:53:45 18:58:33 34° 263° (W) 19:03:20 437.470
JUGNU 01 Feb 19:07:36 19:11:01 16° 187° (S) 19:14:24 437.505
GOMX 1 01 Feb 19:16:48 19:18:00 11° 63° (ENE) 19:19:35 467.674
ISS 01 Feb 19:29:44 19:31:42 15° 129° (SE) 19:33:47 145.825
CUTE 1.7 + AOD 2 01 Feb 19:29:59 19:31:07 11° 67° (ENE) 19:32:30 437.475
YUBILEINY 01 Feb 19:30:39 19:39:12 68° 93° (E) 19:47:51 435.215
BRITE-PL 01 Feb 19:37:20 19:41:31 26° 69° (ENE) 19:46:02 437.365/2234.400
HO-68 01 Feb 19:47:12 19:53:36 38° 67° (ENE) 20:00:07 435.675
SO-50 01 Feb 19:49:16 19:53:47 35° 246° (WSW) 19:58:12 436.795
STRAND 1 01 Feb 19:53:29 19:58:33 59° 287° (WNW) 20:03:37 437.568
SEEDS 01 Feb 19:53:29 19:56:18 18° 70° (ENE) 19:59:15 437.485
CUBESAT XI-V 01 Feb 19:54:20 19:58:35 33° 288° (WNW) 20:02:47 437.345
SRMSAT 01 Feb 19:54:38 19:58:27 17° 183° (S) 20:02:14 437.500
PRISM 01 Feb 19:59:23 20:02:21 19° 290° (WNW) 20:05:11 437.425
CINEMA 3 01 Feb 20:06:14 20:08:33 14° 66° (ENE) 20:11:09 145.822/145.860
COMPASS 1 01 Feb 20:13:51 20:17:16 25° 72° (ENE) 20:20:46 437.405
AAUSAT CUBESAT 2 01 Feb 20:36:38 20:40:34 40° 74° (ENE) 20:44:31 437.432
CANX-2 01 Feb 20:38:44 20:43:02 83° 77° (ENE) 20:47:20 2200.000
ZACube-1 01 Feb 20:44:03 20:45:47 12° 67° (ENE) 20:47:46 437.345
DOVE 4 01 Feb 20:44:35 20:49:34 61° 75° (ENE) 20:54:49 437.250
DX 1 01 Feb 20:46:21 20:48:46 15° 68° (ENE) 20:51:24 434.975-435.025
GOMX 1 01 Feb 20:50:16 20:55:23 86° 258° (WSW) 21:00:50 467.674
CUBEBUG 2 01 Feb 20:51:16 20:54:53 23° 70° (ENE) 20:58:39 437.445
FUNcube-1 01 Feb 20:53:41 20:56:20 16° 68° (ENE) 20:59:10 145.935
CUTE 1.7 + AOD 2 01 Feb 21:02:26 21:06:39 56° 260° (W) 21:10:51 437.475
ISS 01 Feb 21:04:51 21:07:58 40° 323° (NW) 21:11:04 145.825
BRITE-PL 01 Feb 21:15:13 21:19:52 34° 265° (W) 21:24:46 437.365/2234.400
Oscar 11 01 Feb 21:17:22 21:21:39 59° 76° (ENE) 21:25:56 145.826/435.025
UWE-3 01 Feb 21:22:19 21:26:40 40° 73° (ENE) 21:31:05 435.000/436.395/437.385
SEEDS 01 Feb 21:28:06 21:31:57 32° 263° (W) 21:35:45 437.485
AISAT 01 Feb 21:28:49 21:31:36 17° 68° (ENE) 21:34:34 437.250
YUBILEINY 01 Feb 21:30:15 21:36:54 23° 293° (WNW) 21:43:11 435.215
HO-68 01 Feb 21:34:50 21:41:21 36° 263° (W) 21:47:46 435.675
CINEMA 3 01 Feb 21:40:21 21:45:15 63° 260° (W) 21:50:16 145.822/145.860
SRMSAT 01 Feb 21:44:33 21:46:55 12° 192° (SSW) 21:49:11 437.500
DELFI C3 01 Feb 21:44:58 21:49:03 79° 258° (WSW) 21:53:08 145.870
ESTCUBE 1 01 Feb 21:46:13 21:46:57 10° 66° (ENE) 21:47:58 437.505/2401.250
COMPASS 1 01 Feb 21:49:37 21:52:59 22° 266° (W) 21:56:14 437.405
HUMSAT D 01 Feb 21:50:20 21:54:15 34° 73° (ENE) 21:58:14 437.325/437.525
CUBEBUG 1 01 Feb 21:53:09 21:54:23 11° 66° (ENE) 21:55:52 437.445
VELOX 1 01 Feb 21:53:49 21:57:40 31° 71° (ENE) 22:01:37 145.980
UKube-1 01 Feb 21:54:48 21:59:08 89° 252° (WSW) 22:03:30 .
AIST 1 01 Feb 22:05:33 22:09:35 36° 78° (ENE) 22:13:40
AAUSAT CUBESAT 2 01 Feb 22:14:16 22:16:28 13° 269° (W) 22:18:27 437.432
ZACube-1 01 Feb 22:17:10 22:21:43 59° 260° (W) 22:26:17 437.345
DX 1 01 Feb 22:20:37 22:24:44 41° 261° (W) 22:28:53 434.975-435.025
DOVE 4 01 Feb 22:25:10 22:27:52 14° 272° (W) 22:30:18 437.250
50 SAT 01 Feb 22:25:43 22:29:49 67° 75° (ENE) 22:33:55 437.505
CUBEBUG 2 01 Feb 22:27:07 22:31:25 33° 264° (W) 22:35:43 437.445
FUNcube-1 01 Feb 22:27:57 22:32:21 45° 262° (W) 22:36:47 145.935
UNISAT 6 01 Feb 22:40:16 22:44:13 33° 97° (E) 22:48:08 437.425
NANOSAT C BR1 01 Feb 22:46:12 22:49:29 22° 94° (E) 22:52:51 145.865
SPROUT 01 Feb 22:57:54 23:00:05 14° 68° (ENE) 23:02:29 437.525
UWE-3 01 Feb 23:00:11 23:03:24 18° 268° (W) 23:06:27 435.000/436.395/437.385
BUGSAT 1 01 Feb 23:01:37 23:05:08 25° 95° (E) 23:08:43 437.445
QB50P2 01 Feb 23:02:21 23:06:17 34° 97° (E) 23:10:12 145.880/145.840
AISAT 01 Feb 23:03:48 23:07:58 38° 262° (W) 23:12:09 437.250
QB50P1 01 Feb 23:10:09 23:14:14 42° 98° (E) 23:18:19 145.935-145.965
ANTELSAT 01 Feb 23:16:16 23:20:41 89° 284° (WNW) 23:24:58 437.575/2403.000
ESTCUBE 1 01 Feb 23:18:54 23:23:21 65° 259° (W) 23:27:50 437.505/2401.250
TISAT 1 01 Feb 23:20:02 23:23:26 24° 71° (ENE) 23:26:58 437.305
TIGRISAT 01 Feb 23:21:39 23:26:03 79° 283° (WNW) 23:30:21 435.000
CUBEBUG 1 01 Feb 23:26:03 23:30:19 57° 260° (W) 23:34:38 437.445
HUMSAT D 01 Feb 23:27:14 23:30:11 17° 268° (W) 23:33:00 437.325/437.525
POLYITAN 1 01 Feb 23:27:29 23:31:48 71° 101° (E) 23:36:04 437.675
VELOX 1 01 Feb 23:30:59 23:34:20 20° 266° (W) 23:37:33 145.980
GONETS M04 01 Feb 23:42:38 23:46:38 15° 81° (E) 23:51:19
AIST 1 01 Feb 23:44:25 23:46:59 15° 272° (W) 23:49:23
POPSAT HIP 1 01 Feb 23:45:21 23:49:39 71° 285° (WNW) 23:53:54 437.405
DUCHIFAT 1 01 Feb 23:45:37 23:49:55 71° 283° (WNW) 23:54:08 145.980
SWISSCUBE 01 Feb 23:59:58 00:01:31 12° 65° (ENE) 00:03:22 437.505
BEESAT 02 Feb 00:13:45 00:16:26 16° 67° (ENE) 00:19:20 436.000
UNISAT 6 02 Feb 00:17:44 00:20:49 18° 291° (WNW) 00:23:43 437.425
ITUPSAT 1 02 Feb 00:19:47 00:22:51 18° 68° (ENE) 00:26:05 437.325
NANOSAT C BR1 02 Feb 00:21:44 00:25:22 26° 289° (WNW) 00:28:55 145.865
SPROUT 02 Feb 00:31:45 00:35:52 43° 261° (W) 00:40:01 437.525
BUGSAT 1 02 Feb 00:37:07 00:40:34 23° 289° (WNW) 00:43:54 437.445
QB50P2 02 Feb 00:39:04 00:41:59 17° 291° (WNW) 00:44:42 145.880/145.840
QB50P1 02 Feb 00:47:23 00:49:49 14° 292° (WNW) 00:52:03 145.935-145.965
TISAT 1 02 Feb 00:55:47 00:59:14 23° 265° (W) 01:02:36 437.305
O/OREOS (USA 219) 02 Feb 00:57:17 01:00:31 19° 59° (ENE) 01:03:52 437.305
BEESAT 2 02 Feb 01:14:56 01:18:52 48° 116° (ESE) 01:22:54 435.950
BEESAT 3 02 Feb 01:24:43 01:28:46 75° 118° (ESE) 01:32:55 437.485
AIST 2 02 Feb 01:32:19 01:35:57 29° 113° (ESE) 01:39:41 435.215
GONETS M04 02 Feb 01:33:42 01:42:29 90° 35° (NE) 01:51:16
SWISSCUBE 02 Feb 01:34:12 01:38:55 65° 259° (W) 01:43:40 437.505
BEESAT 02 Feb 01:49:21 01:53:57 48° 261° (W) 01:58:33 436.000
M-CUBED/EXP-1 PRIME 02 Feb 01:55:24 01:55:55 10° 65° (ENE) 01:56:39 437.505
ITUPSAT 1 02 Feb 01:55:58 02:00:28 42° 261° (W) 02:04:59 437.325
Oscar 19 02 Feb 02:14:02 02:19:12 82° 286° (WNW) 02:24:19 437.125/150
Gurwin Techsat 1B 02 Feb 02:21:15 02:25:35 26° 94° (E) 02:30:01 435.225
AUBIESAT-1 02 Feb 02:22:43 02:25:34 20° 68° (ENE) 02:28:21 437.475
STARS 02 Feb 02:25:24 02:29:40 49° 74° (ENE) 02:34:00 437.465
O/OREOS (USA 219) 02 Feb 02:35:51 02:40:07 36° 255° (WSW) 02:44:17 437.305
ITAMSAT 1 02 Feb 02:39:12 02:44:22 57° 101° (E) 02:49:30 435.822/435.867
KKS-1 02 Feb 02:40:50 02:45:18 70° 259° (W) 02:49:47 437.445
HORYU 2 02 Feb 02:52:17 02:54:05 13° 91° (E) 02:56:08 437.375
BEESAT 2 02 Feb 02:54:55 02:57:25 15° 313° (NW) 02:59:48 435.950
PCSat 02 Feb 03:03:51 03:08:39 35° 110° (ESE) 03:13:34 145.827
DANDE 02 Feb 03:04:35 03:11:06 27° 87° (E) 03:18:06 436.750
BEESAT 3 02 Feb 03:06:24 03:07:30 11° 316° (NW) 03:08:24 437.485
CUSAT 1 02 Feb 03:10:55 03:18:06 35° 89° (E) 03:25:30 437.405
AIST 2 02 Feb 03:11:06 03:14:35 23° 309° (NW) 03:18:03 435.215
M-CUBED/EXP-1 PRIME 02 Feb 03:26:47 03:30:41 49° 255° (WSW) 03:34:16 437.505
ISS 02 Feb 03:34:54 03:38:09 54° 39° (NE) 03:41:23 145.825
GONETS M04 02 Feb 03:35:31 03:40:46 16° 297° (WNW) 03:45:24
JAS-2 02 Feb 03:42:50 03:43:46 11° 89° (E) 03:45:18 435.910
AUBIESAT-1 02 Feb 03:57:14 04:00:26 23° 258° (WSW) 04:03:23 437.475
Gurwin Techsat 1B 02 Feb 04:00:51 04:05:37 34° 289° (WNW) 04:10:19 435.225
RS-15 02 Feb 04:02:35 04:13:03 56° 112° (ESE) 04:23:39 29.354- 29.394
STARS 02 Feb 04:04:24 04:06:30 13° 269° (W) 04:08:21 437.465
AO-7 02 Feb 04:13:00 04:20:51 46° 100° (E) 04:28:44 29.400- 29.500
ITAMSAT 1 02 Feb 04:20:16 04:23:27 16° 294° (WNW) 04:26:23 435.822/435.867
HORYU 2 02 Feb 04:26:49 04:31:06 48° 286° (WNW) 04:35:21 437.375
DANDE 02 Feb 04:45:47 04:54:04 64° 282° (WNW) 05:02:36 436.750
PCSat 02 Feb 04:47:26 04:52:08 29° 306° (NW) 04:56:46 145.827
MOZHAYETS 4 02 Feb 04:49:40 04:54:16 76° 259° (WSW) 04:58:51
CUSAT 1 02 Feb 04:52:55 05:00:56 50° 284° (WNW) 05:08:55 437.405
PRISM 02 Feb 05:12:17 05:14:40 16° 69° (ENE) 05:17:14 437.425
ISS 02 Feb 05:13:05 05:14:19 11° 232° (SW) 05:15:25 145.825
CUBESAT XI-V 02 Feb 05:19:21 05:21:46 15° 68° (ENE) 05:24:25 437.345
JAS-2 02 Feb 05:23:30 05:29:30 88° 102° (ESE) 05:36:18 435.910
STRAND 1 02 Feb 05:29:42 05:32:33 16° 66° (ENE) 05:35:38 437.568
CUTE-I 02 Feb 05:35:52 05:38:04 13° 89° (E) 05:40:36 437.470
YUBILEINY 02 Feb 05:45:16 05:52:28 29° 70° (ENE) 05:59:55 435.215
